Preview of NWS' New Version of Forecast
This preview is not operational and should not be used for support decisions.

Regional Weather Roundup (RWR)

Issued by National Weather Service (NWS)

                            
000
ASUS43 KBIS 220910
RWRND 

NORTH DAKOTA REGIONAL WEATHER ROUNDUP
NATIONAL WEATHER SERVICE BISMARCK ND
400 AM CDT MON APR 22 2019

NOTE: "FAIR" INDICATES FEW OR NO CLOUDS BELOW 12,000 FEET WITH NO
SIGNIFICANT WEATHER AND/OR OBSTRUCTIONS TO VISIBILITY.


NDZ001>003-009>011-017-221000-
NORTHWEST NORTH DAKOTA
  
CITY           SKY/WX    TMP DP  RH WIND       PRES   REMARKS
WILLISTON      CLEAR     30  24  78 CALM      30.24S                  
MINOT          CLEAR     39  27  62 W9        30.19S                  
MINOT AFB      CLEAR     34  26  72 NW9       30.18S                  
$$
 
NDZ018>021-031>035-040>046-221000-
SOUTHWEST NORTH DAKOTA
  
CITY           SKY/WX    TMP DP  RH WIND       PRES   REMARKS
BISMARCK       PTCLDY    39  33  79 NW5       30.17R                  
DICKINSON      CLEAR     35  30  82 NW8       30.19R                  
GARRISON         N/A     35  29  78 N9        30.17S                  
HETTINGER ARPT MOCLDY    38  35  89 W7        30.19S                  
$$
 
NDZ004>008-012>016-024-026-027-054-221000-
NORTHEAST NORTH DAKOTA
  
CITY           SKY/WX    TMP DP  RH WIND       PRES   REMARKS
GRAND FORKS    PTCLDY    40  38  93 SE3       30.13R                  
GRND FRKS AFB  PTCLDY    37  35  90 CALM      30.13R                  
DEVILS LAKE    PTCLDY    39  32  76 NW7       30.15R                  
$$
 
NDZ022-023-025-028>030-036>039-047>053-221000-
SOUTHEAST NORTH DAKOTA
  
CITY           SKY/WX    TMP DP  RH WIND       PRES   REMARKS
FARGO          CLOUDY    47  39  74 NE8       30.11R                  
JAMESTOWN      CLEAR     35  31  85 CALM      30.12R                  
$$